| time (UTC) | temp F | wind direction | speed knots | gust knots | rain 1hr in | rain 24hr in | rain mn in | humidity % | barometer mb |
| 20260507124641 | 47 | 156 | 0.0 | 1.7 | 0.00 | 0.06 | 0.00 | 72 | 968.2 |
| 20260507124138 | 46 | 167 | 0.0 | 0.9 | 0.00 | 0.06 | 0.00 | 76 | 968.3 |
| 20260507123857 | 46 | 283 | 0.0 | 0.9 | 0.00 | 0.06 | 0.00 | 74 | 968.3 |
| 20260507123139 | 46 | 283 | 0.0 | 0.9 | 0.00 | 0.06 | 0.00 | 76 | 968.3 |
| 20260507122636 | 45 | 284 | 0.0 | 0.9 | 0.00 | 0.06 | 0.00 | 75 | 968.2 |
| 20260507122135 | 45 | 236 | 0.0 | 0.0 | 0.00 | 0.06 | 0.00 | 75 | 968.2 |
| 20260507121635 | 45 | 213 | 0.0 | 0.0 | 0.00 | 0.07 | 0.00 | 76 | 968.2 |
| 20260507121134 | 44 | 213 | 0.0 | 0.0 | 0.00 | 0.09 | 0.00 | 77 | 968.2 |
| 20260507120632 | 44 | 324 | 0.0 | 0.0 | 0.00 | 0.10 | 0.00 | 77 | 968.2 |
| 20260507120131 | 43 | 39 | 0.0 | 0.0 | 0.00 | 0.11 | 0.00 | 78 | 968.1 |
| 20260507115629 | 43 | 39 | 0.0 | 0.0 | 0.00 | 0.12 | 0.00 | 79 | 968.1 |
| 20260507115130 | 42 | 39 | 0.0 | 0.9 | 0.00 | 0.13 | 0.00 | 79 | 968.0 |
| 20260507114631 | 42 | 40 | 0.0 | 0.9 | 0.00 | 0.14 | 0.00 | 81 | 967.9 |
| 20260507114609 | 42 | 331 | 0.0 | 0.0 | 0.00 | 0.16 | 0.00 | 83 | 967.9 |
| 20260507113627 | 41 | 355 | 0.0 | 0.0 | 0.00 | 0.17 | 0.00 | 85 | 967.9 |
| 20260507113127 | 41 | 355 | 0.0 | 0.0 | 0.00 | 0.18 | 0.00 | 85 | 967.9 |
| 20260507112845 | 40 | 355 | 0.0 | 0.0 | 0.00 | 0.19 | 0.00 | 87 | 967.9 |
| 20260507112127 | 40 | 355 | 0.0 | 0.0 | 0.00 | 0.20 | 0.00 | 88 | 967.9 |
| 20260507111625 | 39 | 355 | 0.0 | 0.0 | 0.00 | 0.20 | 0.00 | 88 | 967.9 |
| 20260507111124 | 38 | 355 | 0.0 | 0.0 | 0.00 | 0.20 | 0.00 | 90 | 967.7 |
| 20260507110625 | 38 | 355 | 0.0 | 0.0 | 0.00 | 0.21 | 0.00 | 91 | 967.7 |
| 20260507110347 | 37 | 355 | 0.0 | 0.0 | 0.00 | 0.21 | 0.00 | 92 | 967.6 |
| 20260507105846 | 37 | 355 | 0.0 | 0.0 | 0.00 | 0.21 | 0.00 | 92 | 967.6 |
| 20260507105123 | 36 | 355 | 0.0 | 0.0 | 0.00 | 0.21 | 0.00 | 92 | 967.6 |
| 20260507104621 | 36 | 355 | 0.0 | 0.0 | 0.00 | 0.21 | 0.00 | 92 | 967.5 |
| 20260507104122 | 36 | 355 | 0.0 | 0.0 | 0.00 | 0.21 | 0.00 | 92 | 967.6 |
| 20260507103827 | 36 | 355 | 0.0 | 0.0 | 0.00 | 0.21 | 0.00 | 90 | 967.5 |
| 20260507103707 | 36 | 355 | 0.0 | 0.0 | 0.00 | 0.21 | 0.00 | 91 | 967.5 |
| 20260507102617 | 36 | 355 | 0.0 | 0.0 | 0.00 | 0.21 | 0.00 | 90 | 967.5 |
| 20260507102116 | 36 | 355 | 0.0 | 0.0 | 0.00 | 0.22 | 0.00 | 90 | 967.3 |
| 20260507101616 | 36 | 355 | 0.0 | 0.0 | 0.00 | 0.22 | 0.00 | 90 | 967.4 |
| 20260507101117 | 36 | 355 | 0.0 | 0.0 | 0.00 | 0.22 | 0.00 | 88 | 967.4 |
| 20260507100617 | 37 | 355 | 0.0 | 0.0 | 0.00 | 0.22 | 0.00 | 88 | 967.4 |
| 20260507100117 | 37 | 355 | 0.0 | 0.0 | 0.00 | 0.22 | 0.00 | 87 | 967.3 |
| 20260507095617 | 37 | 355 | 0.0 | 0.0 | 0.00 | 0.23 | 0.00 | 87 | 967.3 |
| 20260507095117 | 37 | 355 | 0.0 | 0.0 | 0.00 | 0.23 | 0.00 | 86 | 967.3 |
| 20260507094837 | 38 | 355 | 0.0 | 0.0 | 0.00 | 0.23 | 0.00 | 86 | 967.3 |
| 20260507094115 | 38 | 355 | 0.0 | 0.0 | 0.00 | 0.23 | 0.00 | 86 | 967.3 |
| 20260507093841 | 38 | 355 | 0.0 | 0.0 | 0.00 | 0.23 | 0.00 | 85 | 967.3 |
| 20260507093120 | 38 | 355 | 0.0 | 0.0 | 0.00 | 0.23 | 0.00 | 85 | 967.2 |
| 20260507092620 | 38 | 355 | 0.0 | 0.0 | 0.00 | 0.23 | 0.00 | 85 | 967.1 |
| 20260507092119 | 39 | 355 | 0.0 | 0.0 | 0.00 | 0.23 | 0.00 | 84 | 967.1 |
| 20260507091618 | 39 | 355 | 0.0 | 0.0 | 0.00 | 0.23 | 0.00 | 84 | 967.2 |
| 20260507091118 | 39 | 355 | 0.0 | 0.0 | 0.00 | 0.23 | 0.00 | 83 | 967.2 |
| 20260507090618 | 39 | 355 | 0.0 | 0.0 | 0.00 | 0.23 | 0.00 | 82 | 967.2 |
| 20260507090339 | 40 | 355 | 0.0 | 0.0 | 0.00 | 0.23 | 0.00 | 82 | 967.2 |
| 20260507085839 | 40 | 355 | 0.0 | 0.0 | 0.00 | 0.23 | 0.00 | 81 | 967.2 |
| 20260507085117 | 41 | 355 | 0.0 | 0.0 | 0.00 | 0.23 | 0.00 | 80 | 967.1 |
| 20260507084617 | 41 | 355 | 0.0 | 0.0 | 0.00 | 0.23 | 0.00 | 78 | 967.1 |
| 20260507084115 | 42 | 355 | 0.0 | 0.0 | 0.00 | 0.23 | 0.00 | 78 | 967.2 |
| 20260507083837 | 42 | 355 | 0.0 | 0.0 | 0.00 | 0.23 | 0.00 | 76 | 967.3 |
| 20260507083117 | 43 | 355 | 0.0 | 0.0 | 0.00 | 0.23 | 0.00 | 75 | 967.2 |
| 20260507082615 | 43 | 355 | 0.0 | 0.0 | 0.00 | 0.23 | 0.00 | 74 | 967.3 |
| 20260507082116 | 44 | 355 | 0.0 | 0.0 | 0.00 | 0.23 | 0.00 | 73 | 967.3 |
| 20260507081613 | 44 | 355 | 0.0 | 0.0 | 0.00 | 0.23 | 0.00 | 71 | 967.3 |
| 20260507081114 | 45 | 355 | 0.0 | 0.0 | 0.00 | 0.23 | 0.00 | 70 | 967.4 |
| 20260507080611 | 45 | 355 | 0.0 | 1.7 | 0.00 | 0.23 | 0.00 | 68 | 967.3 |
| 20260507080111 | 46 | 355 | 0.0 | 1.7 | 0.00 | 0.23 | 0.00 | 67 | 967.3 |
| 20260507075610 | 46 | 304 | 0.0 | 1.7 | 0.00 | 0.23 | 0.00 | 67 | 967.3 |
| 20260507075111 | 46 | 71 | 0.0 | 1.7 | 0.00 | 0.23 | 0.00 | 67 | 967.3 |
| 20260507074608 | 46 | 22 | 0.0 | 1.7 | 0.00 | 0.23 | 0.00 | 68 | 967.2 |
| 20260507074108 | 46 | 22 | 0.0 | 1.7 | 0.00 | 0.23 | 0.00 | 67 | 967.3 |
| 20260507073608 | 46 | 22 | 0.0 | 0.9 | 0.00 | 0.23 | 0.00 | 68 | 967.3 |
| 20260507073106 | 46 | 338 | 0.0 | 0.0 | 0.00 | 0.23 | 0.00 | 68 | 967.4 |
| 20260507072602 | 46 | 300 | 0.0 | 0.0 | 0.00 | 0.23 | 0.00 | 67 | 967.4 |
| 20260507072059 | 46 | 300 | 0.0 | 0.0 | 0.00 | 0.23 | 0.00 | 68 | 967.3 |
| 20260507071602 | 47 | 300 | 0.0 | 0.0 | 0.00 | 0.23 | 0.00 | 66 | 967.2 |
| 20260507071054 | 47 | 19 | 0.0 | 1.7 | 0.00 | 0.23 | 0.00 | 68 | 967.3 |
| 20260507070548 | 47 | 20 | 0.0 | 1.7 | 0.00 | 0.23 | 0.00 | 67 | 967.2 |
| 20260507070043 | 47 | 31 | 0.0 | 2.6 | 0.00 | 0.23 | 0.00 | 65 | 967.2 |
| 20260507065537 | 47 | 34 | 0.0 | 2.6 | 0.00 | 0.23 | 0.00 | 66 | 967.2 |
| 20260507065248 | 47 | 35 | 0.0 | 0.0 | 0.00 | 0.23 | 0.00 | 67 | 967.3 |
| 20260507064525 | 47 | 35 | 0.0 | 2.6 | 0.00 | 0.23 | 0.00 | 66 | 967.3 |
| 20260507064242 | 47 | 35 | 0.0 | 2.6 | 0.00 | 0.23 | 0.00 | 65 | 967.3 |
| 20260507063513 | 47 | 20 | 0.0 | 2.6 | 0.00 | 0.23 | 0.00 | 65 | 967.3 |
| 20260507063007 | 47 | 320 | 0.0 | 1.7 | 0.00 | 0.23 | 0.00 | 66 | 967.3 |
| 20260507062723 | 47 | 35 | 0.0 | 0.0 | 0.00 | 0.23 | 0.00 | 66 | 967.4 |
| 20260507062438 | 47 | 35 | 0.0 | 0.9 | 0.00 | 0.23 | 0.00 | 66 | 967.5 |
| 20260507061449 | 47 | 35 | 0.0 | 0.9 | 0.00 | 0.23 | 0.00 | 65 | 967.5 |
| 20260507060942 | 47 | 34 | 0.0 | 0.9 | 0.00 | 0.23 | 0.00 | 65 | 967.6 |
| 20260507060702 | 47 | 22 | 0.0 | 4.3 | 0.00 | 0.23 | 0.00 | 65 | 967.7 |
| 20260507060154 | 47 | 22 | 0.0 | 4.3 | 0.00 | 0.23 | 0.00 | 65 | 967.7 |
| 20260507055425 | 47 | 35 | 0.0 | 1.7 | 0.00 | 0.23 | 0.00 | 65 | 967.6 |
| 20260507054918 | 47 | 35 | 0.0 | 1.7 | 0.00 | 0.23 | 0.00 | 65 | 967.6 |
| 20260507054901 | 47 | 266 | 0.0 | 1.7 | 0.00 | 0.23 | 0.00 | 64 | 967.6 |
| 20260507053915 | 47 | 17 | 0.0 | 1.7 | 0.00 | 0.23 | 0.00 | 64 | 967.6 |
| 20260507053623 | 47 | 28 | 0.0 | 2.6 | 0.00 | 0.23 | 0.00 | 65 | 967.5 |
| 20260507052859 | 47 | 28 | 0.0 | 2.6 | 0.00 | 0.23 | 0.00 | 65 | 967.5 |
| 20260507052356 | 48 | 294 | 0.0 | 0.9 | 0.00 | 0.23 | 0.00 | 64 | 967.6 |
| 20260507051854 | 48 | 326 | 0.0 | 0.9 | 0.00 | 0.23 | 0.00 | 65 | 967.7 |
| 20260507051351 | 48 | 32 | 0.0 | 0.9 | 0.00 | 0.23 | 0.00 | 68 | 967.8 |
| 20260507050851 | 48 | 34 | 0.0 | 0.0 | 0.00 | 0.23 | 0.00 | 67 | 967.8 |
| 20260507050347 | 48 | 34 | 0.0 | 0.0 | 0.00 | 0.23 | 0.00 | 67 | 967.7 |
| 20260507045846 | 49 | 34 | 0.0 | 0.9 | 0.00 | 0.23 | 0.00 | 66 | 967.7 |
| 20260507045343 | 49 | 34 | 0.0 | 1.7 | 0.00 | 0.23 | 0.00 | 64 | 967.6 |
| 20260507044842 | 49 | 32 | 0.0 | 2.6 | 0.00 | 0.23 | 0.00 | 65 | 967.7 |
| 20260507044600 | 49 | 28 | 0.0 | 2.6 | 0.00 | 0.23 | 0.00 | 64 | 967.7 |
| 20260507043841 | 49 | 39 | 0.0 | 2.6 | 0.00 | 0.23 | 0.00 | 66 | 967.7 |
| 20260507043342 | 49 | 261 | 0.0 | 1.7 | 0.00 | 0.23 | 0.00 | 66 | 967.5 |
| 20260507042845 | 49 | 43 | 0.0 | 1.7 | 0.00 | 0.23 | 0.00 | 68 | 967.7 |
| 20260507042343 | 49 | 97 | 0.0 | 0.0 | 0.00 | 0.23 | 0.00 | 70 | 967.7 |
| 20260507041841 | 49 | 97 | 0.0 | 1.7 | 0.00 | 0.23 | 0.00 | 71 | 967.6 |
| 20260507041341 | 49 | 97 | 0.0 | 1.7 | 0.00 | 0.23 | 0.00 | 70 | 967.4 |
| 20260507040841 | 49 | 30 | 0.0 | 0.9 | 0.00 | 0.23 | 0.00 | 69 | 967.2 |
| 20260507040339 | 49 | 30 | 0.9 | 2.6 | 0.00 | 0.23 | 0.00 | 70 | 967.2 |
| 20260507035838 | 50 | 30 | 0.9 | 2.6 | 0.00 | 0.23 | 0.23 | 69 | 967.4 |
| 20260507035602 | 50 | 17 | 0.0 | 1.7 | 0.00 | 0.23 | 0.23 | 69 | 967.4 |
| 20260507034832 | 50 | 34 | 0.0 | 0.9 | 0.00 | 0.23 | 0.23 | 68 | 967.3 |
| 20260507034326 | 50 | 22 | 0.0 | 2.6 | 0.00 | 0.23 | 0.23 | 69 | 967.5 |
| 20260507033820 | 50 | 355 | 0.9 | 6.1 | 0.00 | 0.23 | 0.23 | 69 | 967.5 |
| 20260507033313 | 50 | 319 | 1.7 | 6.1 | 0.00 | 0.23 | 0.23 | 67 | 967.3 |
| 20260507032808 | 50 | 50 | 1.7 | 6.1 | 0.00 | 0.23 | 0.23 | 67 | 967.3 |
| 20260507032305 | 50 | 13 | 1.7 | 6.1 | 0.00 | 0.23 | 0.23 | 67 | 967.2 |
| 20260507031756 | 50 | 13 | 0.9 | 3.5 | 0.00 | 0.23 | 0.23 | 68 | 967.2 |
| 20260507031250 | 50 | 221 | 0.9 | 5.2 | 0.00 | 0.23 | 0.23 | 69 | 967.3 |
| 20260507031004 | 50 | 50 | 0.9 | 5.2 | 0.00 | 0.23 | 0.23 | 69 | 967.3 |
| 20260507030237 | 51 | 263 | 0.9 | 5.2 | 0.00 | 0.23 | 0.23 | 70 | 967.1 |
| 20260507025732 | 51 | 34 | 0.9 | 5.2 | 0.00 | 0.23 | 0.23 | 73 | 967.0 |
| 20260507025455 | 51 | 349 | 1.7 | 7.8 | 0.00 | 0.23 | 0.23 | 73 | 967.1 |
| 20260507024719 | 51 | 56 | 1.7 | 7.8 | 0.00 | 0.23 | 0.23 | 75 | 967.0 |
| 20260507024214 | 51 | 334 | 0.9 | 7.8 | 0.00 | 0.23 | 0.23 | 76 | 967.0 |
| 20260507023708 | 51 | 28 | 0.9 | 5.2 | 0.00 | 0.23 | 0.23 | 78 | 966.9 |
| 20260507023201 | 51 | 317 | 0.9 | 5.2 | 0.00 | 0.23 | 0.23 | 78 | 967.0 |
| 20260507022655 | 51 | 9 | 0.9 | 5.2 | 0.00 | 0.23 | 0.23 | 78 | 966.7 |
| 20260507022150 | 51 | 55 | 0.9 | 5.2 | 0.00 | 0.23 | 0.23 | 80 | 966.6 |
| 20260507021644 | 51 | 51 | 0.9 | 6.1 | 0.00 | 0.23 | 0.23 | 81 | 966.5 |
| 20260507021138 | 51 | 19 | 0.9 | 6.1 | 0.00 | 0.23 | 0.23 | 81 | 966.6 |
| 20260507020637 | 52 | 78 | 0.9 | 4.3 | 0.00 | 0.23 | 0.23 | 81 | 966.6 |
| 20260507020126 | 52 | 10 | 0.9 | 3.5 | 0.00 | 0.23 | 0.23 | 82 | 966.6 |
| 20260507015620 | 52 | 101 | 0.9 | 3.5 | 0.00 | 0.23 | 0.23 | 83 | 966.6 |
| 20260507015114 | 52 | 28 | 0.0 | 3.5 | 0.00 | 0.23 | 0.23 | 83 | 966.8 |
| 20260507014608 | 52 | 28 | 0.0 | 0.0 | 0.00 | 0.23 | 0.23 | 84 | 966.9 |
| 20260507014102 | 52 | 46 | 0.0 | 0.0 | 0.00 | 0.23 | 0.23 | 83 | 967.1 |
| 20260507013759 | 52 | 28 | 0.0 | 1.7 | 0.00 | 0.23 | 0.23 | 84 | 967.0 |
| 20260507013647 | 52 | 42 | 0.0 | 0.0 | 0.00 | 0.23 | 0.23 | 84 | 967.0 |
| 20260507012544 | 52 | 28 | 0.0 | 1.7 | 0.00 | 0.23 | 0.23 | 83 | 967.0 |
| 20260507012255 | 52 | 13 | 0.0 | 1.7 | 0.00 | 0.23 | 0.23 | 83 | 967.0 |
| 20260507011532 | 52 | 26 | 0.0 | 1.7 | 0.00 | 0.23 | 0.23 | 84 | 967.0 |
| 20260507011454 | 52 | 350 | 0.0 | 4.3 | 0.00 | 0.23 | 0.23 | 83 | 967.2 |
| 20260507011026 | 52 | 15 | 0.0 | 4.3 | 0.00 | 0.23 | 0.23 | 83 | 967.0 |
| 20260507010015 | 52 | 30 | 0.0 | 2.6 | 0.00 | 0.23 | 0.23 | 83 | 967.1 |
| 20260507005508 | 52 | 317 | 0.0 | 2.6 | 0.00 | 0.23 | 0.23 | 83 | 966.9 |
| 20260507005002 | 52 | 12 | 0.0 | 2.6 | 0.00 | 0.23 | 0.23 | 83 | 966.8 |
| 20260507004456 | 52 | 117 | 0.0 | 1.7 | 0.00 | 0.23 | 0.23 | 84 | 966.9 |
| 20260507003950 | 52 | 39 | 0.0 | 1.7 | 0.00 | 0.23 | 0.23 | 84 | 967.1 |
| 20260507003709 | 53 | 9 | 0.0 | 0.9 | 0.00 | 0.23 | 0.23 | 84 | 966.9 |
| 20260507002938 | 53 | 33 | 0.0 | 0.9 | 0.00 | 0.23 | 0.23 | 84 | 966.8 |
| 20260507002915 | 53 | 14 | 0.0 | 1.7 | 0.00 | 0.23 | 0.23 | 86 | 966.7 |
| 20260507001926 | 53 | 26 | 0.9 | 4.3 | 0.00 | 0.23 | 0.23 | 85 | 966.6 |
| 20260507001420 | 53 | 73 | 0.0 | 4.3 | 0.00 | 0.23 | 0.23 | 85 | 966.4 |
| 20260507000914 | 53 | 38 | 0.0 | 1.7 | 0.00 | 0.23 | 0.23 | 85 | 966.3 |
| 20260507000636 | 53 | 340 | 0.0 | 1.7 | 0.00 | 0.23 | 0.23 | 85 | 966.3 |
| 20260506235902 | 53 | 329 | 0.9 | 5.2 | 0.00 | 0.23 | 0.23 | 85 | 966.2 |
| 20260506235356 | 53 | 32 | 0.9 | 5.2 | 0.00 | 0.23 | 0.23 | 84 | 965.9 |
| 20260506234849 | 53 | 169 | 0.0 | 3.5 | 0.00 | 0.23 | 0.23 | 84 | 966.0 |
| 20260506234344 | 53 | 324 | 0.9 | 4.3 | 0.00 | 0.23 | 0.23 | 84 | 965.9 |
| 20260506233838 | 53 | 76 | 0.9 | 4.3 | 0.00 | 0.23 | 0.23 | 84 | 965.8 |
| 20260506233332 | 53 | 30 | 0.0 | 4.3 | 0.00 | 0.23 | 0.23 | 84 | 965.7 |
| 20260506232826 | 53 | 313 | 0.0 | 4.3 | 0.00 | 0.23 | 0.23 | 85 | 965.7 |
| 20260506232320 | 53 | 294 | 0.9 | 3.5 | 0.00 | 0.23 | 0.23 | 85 | 965.4 |
| 20260506231820 | 53 | 11 | 0.9 | 3.5 | 0.00 | 0.23 | 0.23 | 84 | 965.4 |
| 20260506231316 | 53 | 51 | 0.0 | 3.5 | 0.00 | 0.23 | 0.23 | 84 | 965.5 |
| 20260506230817 | 53 | 24 | 0.9 | 4.3 | 0.00 | 0.23 | 0.23 | 84 | 965.3 |
| 20260506230320 | 53 | 57 | 0.9 | 4.3 | 0.00 | 0.23 | 0.23 | 84 | 965.4 |
| 20260506225815 | 53 | 302 | 1.7 | 7.0 | 0.00 | 0.23 | 0.23 | 84 | 965.6 |
| 20260506225315 | 53 | 18 | 1.7 | 7.0 | 0.00 | 0.23 | 0.23 | 84 | 965.6 |
| 20260506224816 | 54 | 78 | 1.7 | 7.8 | 0.00 | 0.23 | 0.23 | 84 | 965.6 |
| 20260506224538 | 54 | 42 | 0.9 | 7.8 | 0.00 | 0.23 | 0.23 | 85 | 965.6 |
| 20260506223815 | 54 | 311 | 1.7 | 6.1 | 0.00 | 0.23 | 0.23 | 85 | 965.5 |
| 20260506223316 | 55 | 342 | 1.7 | 6.1 | 0.00 | 0.23 | 0.23 | 84 | 965.4 |
| 20260506223134 | 55 | 66 | 0.9 | 4.3 | 0.00 | 0.23 | 0.23 | 84 | 965.2 |
| 20260506223041 | 55 | 297 | 0.9 | 5.2 | 0.00 | 0.23 | 0.23 | 84 | 965.0 |
| 20260506221813 | 55 | 325 | 0.9 | 5.2 | 0.00 | 0.23 | 0.23 | 84 | 964.9 |
| 20260506221313 | 56 | 269 | 0.9 | 4.3 | 0.00 | 0.23 | 0.23 | 83 | 964.9 |
| 20260506220813 | 56 | 265 | 0.9 | 3.5 | 0.00 | 0.23 | 0.23 | 84 | 964.8 |
| 20260506220313 | 56 | 271 | 0.9 | 3.5 | 0.00 | 0.23 | 0.23 | 83 | 964.8 |
| 20260506215808 | 56 | 305 | 0.9 | 3.5 | 0.00 | 0.23 | 0.23 | 83 | 964.8 |
| 20260506215530 | 56 | 296 | 0.9 | 4.3 | 0.00 | 0.23 | 0.23 | 82 | 964.8 |
| 20260506215032 | 56 | 307 | 0.9 | 4.3 | 0.00 | 0.23 | 0.23 | 83 | 964.7 |
| 20260506214305 | 56 | 17 | 0.9 | 8.7 | 0.00 | 0.23 | 0.23 | 83 | 964.7 |
| 20260506213805 | 57 | 320 | 1.7 | 8.7 | 0.00 | 0.23 | 0.23 | 83 | 964.6 |
| 20260506213304 | 57 | 315 | 1.7 | 6.1 | 0.00 | 0.23 | 0.23 | 83 | 964.4 |
| 20260506212806 | 58 | 248 | 1.7 | 5.2 | 0.00 | 0.23 | 0.23 | 82 | 964.4 |
| 20260506212307 | 58 | 252 | 1.7 | 5.2 | 0.00 | 0.23 | 0.23 | 82 | 964.3 |
| 20260506211804 | 58 | 284 | 0.9 | 5.2 | 0.00 | 0.23 | 0.23 | 81 | 964.1 |
| 20260506211303 | 59 | 294 | 0.9 | 5.2 | 0.00 | 0.23 | 0.23 | 82 | 963.9 |
| 20260506210802 | 59 | 303 | 0.9 | 5.2 | 0.00 | 0.23 | 0.23 | 81 | 963.8 |
| 20260506210303 | 59 | 292 | 0.9 | 5.2 | 0.00 | 0.23 | 0.23 | 82 | 963.8 |
| 20260506205803 | 59 | 298 | 1.7 | 4.3 | 0.00 | 0.23 | 0.23 | 84 | 963.8 |
| 20260506205300 | 59 | 303 | 1.7 | 6.1 | 0.00 | 0.23 | 0.23 | 83 | 963.8 |
| 20260506204802 | 59 | 309 | 0.9 | 6.1 | 0.00 | 0.23 | 0.23 | 82 | 963.8 |
| 20260506204258 | 59 | 311 | 0.9 | 5.2 | 0.00 | 0.24 | 0.23 | 84 | 963.7 |
| 20260506203756 | 59 | 209 | 0.9 | 4.3 | 0.00 | 0.27 | 0.23 | 84 | 963.7 |
| 20260506203255 | 59 | 207 | 0.0 | 2.6 | 0.00 | 0.27 | 0.23 | 84 | 963.6 |
| 20260506202755 | 59 | 291 | 0.0 | 3.5 | 0.00 | 0.27 | 0.23 | 85 | 963.6 |
| 20260506202255 | 59 | 207 | 0.9 | 6.1 | 0.00 | 0.27 | 0.23 | 85 | 963.6 |
| 20260506201753 | 59 | 297 | 0.9 | 6.1 | 0.00 | 0.27 | 0.23 | 86 | 963.5 |
| 20260506201252 | 59 | 267 | 0.9 | 5.2 | 0.00 | 0.27 | 0.23 | 86 | 963.5 |
| 20260506200754 | 59 | 313 | 0.9 | 5.2 | 0.00 | 0.27 | 0.23 | 87 | 963.4 |
| 20260506200254 | 59 | 237 | 0.9 | 6.1 | 0.00 | 0.27 | 0.23 | 87 | 963.4 |
| 20260506195753 | 59 | 239 | 0.9 | 7.0 | 0.00 | 0.27 | 0.23 | 87 | 963.3 |
| 20260506195726 | 60 | 284 | 0.9 | 4.3 | 0.00 | 0.27 | 0.23 | 88 | 963.2 |
| 20260506195345 | 59 | 226 | 0.9 | 7.0 | 0.00 | 0.27 | 0.23 | 87 | 963.1 |
| 20260506194253 | 60 | 220 | 1.7 | 7.0 | 0.00 | 0.27 | 0.23 | 88 | 963.1 |
| 20260506193753 | 60 | 245 | 2.6 | 7.0 | 0.00 | 0.27 | 0.23 | 88 | 963.0 |
| 20260506193252 | 60 | 300 | 1.7 | 7.0 | 0.00 | 0.27 | 0.23 | 87 | 962.9 |
| 20260506192752 | 61 | 299 | 0.9 | 5.2 | 0.00 | 0.27 | 0.23 | 87 | 962.9 |
| 20260506192512 | 61 | 217 | 0.9 | 3.5 | 0.00 | 0.27 | 0.23 | 86 | 962.8 |
| 20260506191754 | 62 | 233 | 0.9 | 3.5 | 0.00 | 0.27 | 0.23 | 87 | 962.7 |
| 20260506191252 | 62 | 298 | 0.9 | 4.3 | 0.00 | 0.27 | 0.23 | 88 | 962.8 |
| 20260506190754 | 62 | 219 | 0.0 | 4.3 | 0.00 | 0.27 | 0.23 | 88 | 962.7 |
| 20260506190518 | 62 | 254 | 0.0 | 1.7 | 0.00 | 0.27 | 0.23 | 89 | 962.6 |
| 20260506185753 | 62 | 267 | 0.0 | 3.5 | 0.00 | 0.27 | 0.23 | 88 | 962.6 |
| 20260506185251 | 62 | 150 | 0.0 | 3.5 | 0.00 | 0.27 | 0.23 | 89 | 962.6 |
| 20260506184752 | 62 | 285 | 0.0 | 1.7 | 0.00 | 0.27 | 0.23 | 91 | 962.5 |
| 20260506184250 | 62 | 200 | 0.0 | 2.6 | 0.01 | 0.27 | 0.23 | 92 | 962.6 |
| 20260506183751 | 61 | 214 | 0.0 | 2.6 | 0.01 | 0.27 | 0.23 | 93 | 962.6 |
| 20260506183746 | 60 | 187 | 0.0 | 4.3 | 0.01 | 0.27 | 0.23 | 93 | 962.7 |
| 20260506182751 | 60 | 224 | 0.0 | 4.3 | 0.01 | 0.27 | 0.23 | 95 | 962.7 |
| 20260506182246 | 60 | 229 | 0.0 | 1.7 | 0.01 | 0.27 | 0.23 | 95 | 962.6 |
| 20260506182223 | 59 | 278 | 0.0 | 3.5 | 0.02 | 0.27 | 0.23 | 95 | 962.7 |
| 20260506181236 | 59 | 295 | 0.0 | 3.5 | 0.02 | 0.27 | 0.23 | 94 | 962.6 |
| 20260506180732 | 59 | 211 | 0.9 | 6.1 | 0.02 | 0.27 | 0.23 | 95 | 962.6 |
| 20260506180234 | 59 | 300 | 0.0 | 6.1 | 0.02 | 0.27 | 0.23 | 96 | 962.7 |
| 20260506175951 | 59 | 298 | 0.0 | 3.5 | 0.02 | 0.27 | 0.23 | 97 | 962.6 |
| 20260506175228 | 59 | 207 | 0.0 | 3.5 | 0.02 | 0.27 | 0.23 | 97 | 962.6 |
| 20260506174728 | 59 | 299 | 0.0 | 1.7 | 0.02 | 0.27 | 0.23 | 97 | 962.6 |
| 20260506174449 | 60 | 309 | 0.0 | 3.5 | 0.01 | 0.26 | 0.22 | 96 | 962.6 |
| 20260506173728 | 60 | 309 | 0.0 | 3.5 | 0.01 | 0.26 | 0.22 | 96 | 962.4 |
| 20260506173225 | 60 | 167 | 0.0 | 2.6 | 0.01 | 0.26 | 0.22 | 96 | 962.4 |
| 20260506173212 | 60 | 234 | 0.0 | 1.7 | 0.01 | 0.26 | 0.22 | 96 | 962.3 |
| 20260506172222 | 60 | 258 | 0.0 | 0.0 | 0.01 | 0.26 | 0.22 | 95 | 962.4 |
| 20260506171722 | 60 | 346 | 0.0 | 1.7 | 0.00 | 0.25 | 0.21 | 95 | 962.3 |
| 20260506171218 | 60 | 143 | 0.0 | 3.5 | 0.00 | 0.25 | 0.21 | 94 | 962.3 |
| 20260506171200 | 60 | 227 | 0.0 | 3.5 | 0.00 | 0.25 | 0.21 | 94 | 962.2 |
| 20260506170439 | 60 | 220 | 0.0 | 0.9 | 0.00 | 0.25 | 0.21 | 94 | 962.2 |
| 20260506165715 | 61 | 215 | 0.0 | 2.6 | 0.00 | 0.25 | 0.21 | 93 | 962.1 |
| 20260506165437 | 61 | 80 | 0.0 | 2.6 | 0.01 | 0.25 | 0.21 | 93 | 962.1 |
| 20260506164715 | 61 | 252 | 0.0 | 4.3 | 0.01 | 0.25 | 0.21 | 94 | 962.0 |
| 20260506164215 | 62 | 215 | 0.0 | 4.3 | 0.01 | 0.25 | 0.21 | 95 | 962.1 |
| 20260506163709 | 61 | 213 | 0.0 | 2.6 | 0.01 | 0.25 | 0.21 | 95 | 962.2 |
| 20260506163203 | 61 | 223 | 0.0 | 2.6 | 0.01 | 0.25 | 0.21 | 96 | 962.2 |
| 20260506162656 | 61 | 173 | 0.0 | 0.9 | 0.01 | 0.25 | 0.21 | 96 | 962.2 |
| 20260506162415 | 60 | 238 | 0.0 | 1.7 | 0.01 | 0.25 | 0.21 | 96 | 962.2 |
| 20260506161645 | 60 | 188 | 0.0 | 2.6 | 0.01 | 0.25 | 0.21 | 96 | 962.3 |
| 20260506161139 | 60 | 209 | 0.0 | 2.6 | 0.01 | 0.25 | 0.21 | 97 | 962.2 |
| 20260506160853 | 60 | 211 | 0.0 | 1.7 | 0.01 | 0.25 | 0.21 | 98 | 962.2 |
| 20260506160127 | 59 | 253 | 0.0 | 0.0 | 0.01 | 0.25 | 0.21 | 97 | 962.2 |
| 20260506155850 | 59 | 192 | 0.0 | 0.0 | 0.01 | 0.25 | 0.21 | 97 | 962.2 |
| 20260506155115 | 58 | 171 | 0.0 | 1.7 | 0.00 | 0.24 | 0.20 | 97 | 962.3 |
| 20260506154609 | 58 | 236 | 0.0 | 1.7 | 0.00 | 0.24 | 0.20 | 97 | 962.3 |
| 20260506154328 | 58 | 268 | 0.0 | 0.0 | 0.00 | 0.24 | 0.20 | 97 | 962.3 |
| 20260506153557 | 58 | 331 | 0.0 | 3.5 | 0.00 | 0.24 | 0.20 | 97 | 962.3 |
| 20260506153051 | 58 | 289 | 0.0 | 2.6 | 0.00 | 0.24 | 0.20 | 96 | 962.2 |
| 20260506152544 | 58 | 149 | 0.0 | 0.9 | 0.00 | 0.24 | 0.20 | 96 | 962.2 |
| 20260506152039 | 58 | 192 | 0.0 | 0.9 | 0.00 | 0.24 | 0.20 | 96 | 962.1 |
| 20260506151533 | 58 | 211 | 0.0 | 0.9 | 0.00 | 0.24 | 0.20 | 96 | 962.1 |
| 20260506151027 | 58 | 200 | 0.0 | 2.6 | 0.01 | 0.24 | 0.20 | 96 | 962.1 |
| 20260506150521 | 58 | 200 | 0.0 | 2.6 | 0.01 | 0.24 | 0.20 | 96 | 962.0 |
| 20260506150015 | 58 | 258 | 0.0 | 2.6 | 0.01 | 0.24 | 0.20 | 96 | 962.0 |
| 20260506145508 | 58 | 246 | 0.0 | 2.6 | 0.01 | 0.24 | 0.20 | 96 | 962.0 |
| 20260506145003 | 57 | 215 | 0.0 | 0.9 | 0.01 | 0.24 | 0.20 | 97 | 961.8 |
| 20260506144457 | 57 | 220 | 0.0 | 0.9 | 0.01 | 0.24 | 0.20 | 97 | 961.8 |
| 20260506143951 | 57 | 265 | 0.0 | 2.6 | 0.02 | 0.24 | 0.20 | 97 | 961.8 |
| 20260506143702 | 57 | 277 | 0.0 | 2.6 | 0.02 | 0.24 | 0.20 | 97 | 961.8 |
| 20260506142939 | 57 | 302 | 0.0 | 0.9 | 0.02 | 0.24 | 0.20 | 97 | 961.9 |
| 20260506142433 | 57 | 286 | 0.0 | 1.7 | 0.02 | 0.24 | 0.20 | 97 | 961.8 |
| 20260506141927 | 57 | 145 | 0.0 | 1.7 | 0.02 | 0.24 | 0.20 | 97 | 961.7 |
| 20260506141421 | 57 | 213 | 0.0 | 1.7 | 0.03 | 0.24 | 0.20 | 97 | 961.6 |
| 20260506140915 | 57 | 250 | 0.0 | 1.7 | 0.02 | 0.23 | 0.19 | 97 | 961.7 |
| 20260506140409 | 57 | 215 | 0.0 | 0.0 | 0.02 | 0.23 | 0.19 | 97 | 961.7 |
| 20260506135903 | 57 | 161 | 0.0 | 1.7 | 0.02 | 0.23 | 0.19 | 97 | 961.8 |
| 20260506135356 | 57 | 273 | 0.0 | 1.7 | 0.02 | 0.23 | 0.19 | 97 | 961.6 |
| 20260506135119 | 57 | 223 | 0.0 | 0.9 | 0.02 | 0.23 | 0.19 | 97 | 961.8 |
| 20260506134345 | 57 | 284 | 0.0 | 0.9 | 0.02 | 0.23 | 0.19 | 97 | 961.8 |
| 20260506133838 | 56 | 197 | 0.0 | 0.0 | 0.01 | 0.22 | 0.18 | 97 | 961.8 |
| 20260506133559 | 56 | 198 | 0.0 | 0.0 | 0.01 | 0.22 | 0.18 | 97 | 961.8 |
| 20260506133056 | 56 | 195 | 0.0 | 0.0 | 0.01 | 0.22 | 0.18 | 97 | 961.8 |
| 20260506132321 | 56 | 195 | 0.0 | 0.0 | 0.01 | 0.22 | 0.18 | 97 | 962.0 |
| 20260506132032 | 56 | 196 | 0.0 | 0.0 | 0.02 | 0.22 | 0.18 | 97 | 962.0 |
| 20260506131309 | 56 | 196 | 0.0 | 0.0 | 0.02 | 0.21 | 0.17 | 97 | 962.0 |
| 20260506131023 | 56 | 196 | 0.0 | 0.0 | 0.04 | 0.21 | 0.17 | 97 | 962.0 |
| 20260506130258 | 56 | 197 | 0.0 | 0.0 | 0.05 | 0.21 | 0.17 | 96 | 962.0 |
| 20260506130014 | 56 | 257 | 0.0 | 0.0 | 0.06 | 0.21 | 0.17 | 96 | 962.0 |
| 20260506125733 | 56 | 164 | 0.0 | 1.7 | 0.07 | 0.21 | 0.17 | 96 | 961.9 |